• In Latvia
  • List of Countries
  • For 7 days
  • Water Temperature
  • Satellite Maps
  • Weather Map
  • Weather Widgets
  • user-avatar
    Login

    Hourly Weather Lezhe

    Today, 20 January, Saturday

    Time Temperature Precipitation Wind Pressure Humidity
    00:00 +6°C° 0.5 mm 4 mps 734 mmHg 88%
    01:00 +7°C° 0 mm 5 mps 734 mmHg 91%
    02:00 +7°C° 0.7 mm 5 mps 734 mmHg 92%
    03:00 +7°C° 0.7 mm 5 mps 734 mmHg 92%
    04:00 +7°C° 0.7 mm 5 mps 734 mmHg 93%
    05:00 +7°C° 1 mm 5 mps 733 mmHg 93%
    06:00 +7°C° 1 mm 4 mps 733 mmHg 94%
    07:00 +7°C° 0 mm 4 mps 733 mmHg 94%
    08:00 +7°C° 1.3 mm 4 mps 733 mmHg 94%
    09:00 +8°C° 1.3 mm 4 mps 733 mmHg 94%
    10:00 +8°C° 1.3 mm 4 mps 733 mmHg 94%
    11:00 +8°C° 1.5 mm 4 mps 733 mmHg 93%
    12:00 +10°C° 1.5 mm 4 mps 733 mmHg 91%
    13:00 +10°C° 1.5 mm 4 mps 733 mmHg 90%
    14:00 +9°C° 1 mm 3 mps 733 mmHg 91%
    15:00 +9°C° 1 mm 2 mps 733 mmHg 91%
    16:00 +10°C° 1 mm 1 mps 733 mmHg 91%
    17:00 +9°C° 0.1 mm 1 mps 734 mmHg 92%
    18:00 +8°C° 0.1 mm 1 mps 734 mmHg 92%
    19:00 +7°C° 0.1 mm 1 mps 734 mmHg 93%
    20:00 +7°C° 0 mm 1 mps 734 mmHg 92%
    21:00 +5°C° 0 mm 2 mps 734 mmHg 91%
    22:00 +5°C° 0 mm 2 mps 734 mmHg 91%
    23:00 +5°C° 0 mm 2 mps 734 mmHg 89%

    Tomorrow, 21 January, Sunday

    Time Temperature Precipitation Wind Pressure Humidity
    00:00 +5°C° 0 mm 2 mps 734 mmHg 88%
    01:00 +5°C° 0 mm 2 mps 734 mmHg 87%
    02:00 +5°C° 0.1 mm 2 mps 733 mmHg 87%
    03:00 +4°C° 0.1 mm 3 mps 733 mmHg 87%
    04:00 +4°C° 0.1 mm 3 mps 732 mmHg 87%
    05:00 +5°C° 0.5 mm 3 mps 731 mmHg 89%
    06:00 +5°C° 0.5 mm 3 mps 731 mmHg 91%
    07:00 +6°C° 0.5 mm 4 mps 730 mmHg 93%
    08:00 +6°C° 1.3 mm 4 mps 730 mmHg 93%
    09:00 +6°C° 1.3 mm 4 mps 729 mmHg 94%
    10:00 +7°C° 1.3 mm 4 mps 729 mmHg 94%
    11:00 +7°C° 2.9 mm 4 mps 728 mmHg 95%
    12:00 +6°C° 2.9 mm 4 mps 728 mmHg 95%
    13:00 +7°C° 2.9 mm 3 mps 727 mmHg 96%
    14:00 +7°C° 1.7 mm 3 mps 727 mmHg 96%
    15:00 +7°C° 1.7 mm 3 mps 727 mmHg 95%
    16:00 +7°C° 1.7 mm 2 mps 727 mmHg 94%
    17:00 +7°C° 0.3 mm 2 mps 727 mmHg 94%
    18:00 +7°C° 0.3 mm 2 mps 728 mmHg 94%
    19:00 +6°C° 0.3 mm 2 mps 728 mmHg 94%
    20:00 +6°C° 0.1 mm 2 mps 729 mmHg 92%
    21:00 +6°C° 0.1 mm 2 mps 729 mmHg 90%
    22:00 +4°C° 0.1 mm 3 mps 730 mmHg 88%
    23:00 +4°C° 0 mm 3 mps 730 mmHg 86%

    Day after tomorrow, 22 January, Monday

    Time Temperature Precipitation Wind Pressure Humidity
    00:00 +3°C° 0 mm 3 mps 730 mmHg 83%
    01:00 +2°C° 0 mm 3 mps 730 mmHg 81%
    02:00 +1°C° 0 mm 4 mps 731 mmHg 80%
    03:00 +1°C° 0 mm 4 mps 731 mmHg 80%
    04:00 0°C° 0 mm 4 mps 731 mmHg 79%
    05:00 0°C° 0 mm 4 mps 732 mmHg 78%
    06:00 -1°C° 0 mm 4 mps 732 mmHg 77%
    07:00 -1°C° 0 mm 4 mps 733 mmHg 76%
    08:00 0°C° 0 mm 4 mps 733 mmHg 71%
    09:00 +2°C° 0 mm 3 mps 734 mmHg 66%
    10:00 +3°C° 0 mm 3 mps 734 mmHg 61%
    11:00 +4°C° 0 mm 3 mps 734 mmHg 59%
    12:00 +5°C° 0 mm 3 mps 734 mmHg 57%
    13:00 +5°C° 0 mm 3 mps 734 mmHg 55%
    14:00 +5°C° 0 mm 3 mps 735 mmHg 58%
    15:00 +4°C° 0 mm 3 mps 735 mmHg 61%
    16:00 +5°C° 0 mm 2 mps 735 mmHg 64%
    17:00 +4°C° 0 mm 2 mps 736 mmHg 65%
    18:00 +3°C° 0 mm 2 mps 736 mmHg 66%
    19:00 +2°C° 0 mm 2 mps 737 mmHg 67%
    20:00 +2°C° 0 mm 2 mps 737 mmHg 66%
    21:00 +2°C° 0 mm 2 mps 738 mmHg 64%
    22:00 +2°C° 0 mm 2 mps 738 mmHg 62%
    23:00 +2°C° 0 mm 2 mps 738 mmHg 61%

    23 January, Tuesday

    Time Temperature Precipitation Wind Pressure Humidity
    00:00 +2°C° 0 mm 2 mps 738 mmHg 59%
    01:00 +2°C° 0 mm 2 mps 738 mmHg 57%
    02:00 +2°C° 0 mm 2 mps 738 mmHg 57%
    03:00 +2°C° 0 mm 2 mps 738 mmHg 57%
    04:00 +2°C° 0 mm 2 mps 738 mmHg 56%
    05:00 +2°C° 0 mm 2 mps 739 mmHg 56%
    06:00 +2°C° 0 mm 2 mps 739 mmHg 57%
    07:00 +2°C° 0 mm 2 mps 739 mmHg 57%
    08:00 +3°C° 0 mm 2 mps 740 mmHg 55%
    09:00 +5°C° 0 mm 2 mps 740 mmHg 53%
    10:00 +6°C° 0 mm 2 mps 740 mmHg 50%
    11:00 +7°C° 0 mm 2 mps 740 mmHg 51%
    12:00 +8°C° 0 mm 2 mps 740 mmHg 51%
    13:00 +9°C° 0 mm 2 mps 740 mmHg 51%
    14:00 +8°C° 0 mm 2 mps 740 mmHg 55%
    15:00 +7°C° 0 mm 2 mps 741 mmHg 60%
    16:00 +6°C° 0 mm 2 mps 741 mmHg 64%
    17:00 +4°C° 0 mm 3 mps 742 mmHg 66%
    18:00 +3°C° 0 mm 3 mps 742 mmHg 67%
    19:00 +3°C° 0 mm 3 mps 743 mmHg 69%
    20:00 +2°C° 0 mm 3 mps 743 mmHg 69%
    21:00 +1°C° 0 mm 4 mps 744 mmHg 68%
    22:00 0°C° 0 mm 4 mps 744 mmHg 68%
    23:00 0°C° 0 mm 4 mps 745 mmHg 68%

    24 January, Wednesday

    Time Temperature Precipitation Wind Pressure Humidity
    00:00 0°C° 0 mm 4 mps 745 mmHg 68%
    01:00 0°C° 0 mm 4 mps 745 mmHg 68%
    02:00 -1°C° 0 mm 4 mps 745 mmHg 68%
    03:00 -1°C° 0 mm 4 mps 746 mmHg 67%
    04:00 -1°C° 0 mm 4 mps 746 mmHg 66%
    05:00 -1°C° 0 mm 4 mps 746 mmHg 65%
    06:00 -1°C° 0 mm 4 mps 747 mmHg 64%
    07:00 -1°C° 0 mm 4 mps 747 mmHg 63%
    08:00 0°C° 0 mm 4 mps 747 mmHg 59%
    09:00 +3°C° 0 mm 4 mps 748 mmHg 55%
    10:00 +4°C° 0 mm 3 mps 748 mmHg 50%
    11:00 +5°C° 0 mm 3 mps 748 mmHg 48%
    12:00 +7°C° 0 mm 2 mps 747 mmHg 46%
    13:00 +8°C° 0 mm 2 mps 747 mmHg 44%
    14:00 +7°C° 0 mm 2 mps 747 mmHg 48%
    15:00 +6°C° 0 mm 2 mps 747 mmHg 52%
    16:00 +6°C° 0 mm 2 mps 747 mmHg 57%
    17:00 +5°C° 0 mm 2 mps 747 mmHg 59%
    18:00 +4°C° 0 mm 2 mps 748 mmHg 61%
    19:00 +3°C° 0 mm 2 mps 748 mmHg 64%
    20:00 +2°C° 0 mm 2 mps 748 mmHg 62%
    21:00 +2°C° 0 mm 2 mps 748 mmHg 61%
    22:00 +2°C° 0 mm 2 mps 748 mmHg 60%
    23:00 +2°C° 0 mm 2 mps 748 mmHg 58%

    25 January, Thursday

    Time Temperature Precipitation Wind Pressure Humidity
    00:00 +2°C° 0 mm 2 mps 747 mmHg 56%
    01:00 +2°C° 0 mm 2 mps 747 mmHg 54%
    02:00 +2°C° 0 mm 2 mps 747 mmHg 53%
    03:00 +2°C° 0 mm 2 mps 747 mmHg 51%
    04:00 +2°C° 0 mm 2 mps 746 mmHg 50%
    05:00 +2°C° 0 mm 2 mps 746 mmHg 50%
    06:00 +2°C° 0 mm 2 mps 746 mmHg 49%
    07:00 +2°C° 0 mm 2 mps 746 mmHg 48%
    08:00 +4°C° 0 mm 2 mps 746 mmHg 46%
    09:00 +7°C° 0 mm 1 mps 746 mmHg 44%
    10:00 +8°C° 0 mm 1 mps 746 mmHg 42%
    11:00 +9°C° 0 mm 1 mps 745 mmHg 42%
    12:00 +10°C° 0 mm 1 mps 745 mmHg 42%
    13:00 +10°C° 0 mm 1 mps 744 mmHg 42%
    14:00 +10°C° 0 mm 1 mps 744 mmHg 47%
    15:00 +9°C° 0 mm 1 mps 744 mmHg 52%
    16:00 +8°C° 0 mm 1 mps 743 mmHg 57%
    17:00 +7°C° 0 mm 1 mps 743 mmHg 58%
    18:00 +6°C° 0 mm 1 mps 744 mmHg 58%
    19:00 +5°C° 0 mm 1 mps 744 mmHg 59%
    20:00 +5°C° 0 mm 1 mps 744 mmHg 57%
    21:00 +4°C° 0 mm 1 mps 744 mmHg 55%
    22:00 +3°C° 0 mm 2 mps 744 mmHg 53%
    23:00 +3°C° 0 mm 2 mps 743 mmHg 51%
    Show more